TimeEST,TemperatureF,Dew PointF,Humidity,Sea Level PressureIn,VisibilityMPH,Wind Direction,Wind SpeedMPH,Gust SpeedMPH,PrecipitationIn,Events,Conditions,WindDirDegrees,DateUTC
12:40 AM,39.2,37.4,93,29.56,2.5,North,6.9,-,0.04,Rain,Rain,360,2013-03-06 05:40:00
12:54 AM,39.0,37.0,93,29.57,6.0,North,8.1,-,0.07,Rain,Light Rain,360,2013-03-06 05:54:00
1:54 AM,39.0,37.0,93,29.59,10.0,NNW,6.9,-,0.02,Rain,Light Rain,330,2013-03-06 06:54:00
2:54 AM,39.0,37.0,93,29.58,10.0,NW,11.5,-,0.02,Rain,Light Rain,320,2013-03-06 07:54:00
2:59 AM,39.2,37.4,93,29.58,10.0,NNW,10.4,-,0.00,Rain,Light Rain,330,2013-03-06 07:59:00
3:37 AM,39.2,37.4,93,29.58,10.0,NW,9.2,-,0.01,Rain,Light Rain,310,2013-03-06 08:37:00
3:46 AM,39.2,37.4,93,29.59,10.0,NW,9.2,-,0.01,Rain,Light Rain,310,2013-03-06 08:46:00
3:54 AM,37.9,35.1,89,29.60,10.0,WNW,15.0,19.6,0.02,Rain,Light Rain,300,2013-03-06 08:54:00
4:54 AM,37.0,28.9,73,29.61,10.0,WNW,13.8,-,0.00,,Overcast,300,2013-03-06 09:54:00
5:54 AM,36.0,25.0,64,29.63,10.0,WNW,16.1,-,N/A,,Overcast,290,2013-03-06 10:54:00
6:54 AM,35.1,25.0,67,29.65,10.0,WNW,13.8,21.9,N/A,,Mostly Cloudy,290,2013-03-06 11:54:00
7:54 AM,35.1,21.9,59,29.68,10.0,NW,15.0,26.5,N/A,,Overcast,310,2013-03-06 12:54:00
8:54 AM,37.0,21.9,54,29.70,10.0,NW,18.4,34.5,N/A,,Scattered Clouds,320,2013-03-06 13:54:00
9:54 AM,37.9,21.0,51,29.72,9.0,NW,27.6,42.6,0.00,,Mostly Cloudy,310,2013-03-06 14:54:00
10:54 AM,39.9,21.9,49,29.74,10.0,NW,27.6,36.8,0.00,,Scattered Clouds,320,2013-03-06 15:54:00
11:54 AM,42.1,21.9,45,29.75,10.0,NW,26.5,38.0,N/A,,Scattered Clouds,310,2013-03-06 16:54:00
12:54 PM,44.1,21.9,42,29.75,10.0,NW,20.7,39.1,N/A,,Scattered Clouds,320,2013-03-06 17:54:00
1:54 PM,46.9,25.0,42,29.75,10.0,NW,25.3,38.0,N/A,,Mostly Cloudy,310,2013-03-06 18:54:00
2:54 PM,45.0,23.0,42,29.79,10.0,NW,18.4,27.6,N/A,,Mostly Cloudy,320,2013-03-06 19:54:00
3:54 PM,46.0,25.0,44,29.85,10.0,NW,20.7,32.2,N/A,,Mostly Cloudy,310,2013-03-06 20:54:00
4:54 PM,45.0,25.0,46,29.90,10.0,NNW,16.1,24.2,N/A,,Mostly Cloudy,330,2013-03-06 21:54:00
5:54 PM,42.1,25.0,51,29.94,10.0,NW,15.0,-,N/A,,Scattered Clouds,320,2013-03-06 22:54:00
6:54 PM,37.9,26.1,62,30.00,10.0,WNW,15.0,-,N/A,,Partly Cloudy,300,2013-03-06 23:54:00
7:54 PM,37.0,25.0,62,30.02,10.0,NW,9.2,-,N/A,,Partly Cloudy,320,2013-03-07 00:54:00
8:54 PM,36.0,25.0,64,30.04,10.0,NW,5.8,-,N/A,,Partly Cloudy,320,2013-03-07 01:54:00
9:54 PM,35.1,26.1,70,30.06,10.0,NW,9.2,-,N/A,,Mostly Cloudy,320,2013-03-07 02:54:00
10:54 PM,37.0,25.0,62,30.07,10.0,North,9.2,19.6,N/A,,Mostly Cloudy,350,2013-03-07 03:54:00
11:54 PM,37.0,26.1,65,30.08,10.0,NW,5.8,-,N/A,,Mostly Cloudy,320,2013-03-07 04:54:00